Stations météo

Publicité
Lahr, Allemagne (10805): Température de l'air & dewpoint: 17.07.2018 19:00:00 - 23.07.2018 19:00:00 (CEST)Lahr, Allemagne (10805): Température de l'air 5cm & Température de l'air -5cm: 17.07.2018 19:00:00 - 23.07.2018 19:00:00 (CEST)Lahr, Allemagne (10805): Température de l'air -20cm & Température de l'air -100cm: 17.07.2018 19:00:00 - 23.07.2018 19:00:00 (CEST)Lahr, Allemagne (10805): Vitesse du vent & gusts: 17.07.2018 19:00:00 - 23.07.2018 19:00:00 (CEST)Lahr, Allemagne (10805): Direction du vent: 17.07.2018 19:00:00 - 23.07.2018 19:00:00 (CEST)Lahr, Allemagne (10805): reduced air pressure: 17.07.2018 19:00:00 - 23.07.2018 19:00:00 (CEST)Lahr, Allemagne (10805): visibility: 17.07.2018 19:00:00 - 23.07.2018 19:00:00 (CEST)Lahr, Allemagne (10805): Ensoleillement: 17.07.2018 19:00:00 - 23.07.2018 19:00:00 (CEST)Lahr, Allemagne (10805): Quantités de précipitations: 17.07.2018 19:00:00 - 23.07.2018 19:00:00 (CEST)
Date & Time tt [°C] td [°C] tt 5cm [°C] tt -5cm [°C] tt -20cm [°C] tt -100cm [°C] ff [km/h] ff [knt] fx [km/h] fx [knt] dd ppp [hPa] vv [km] sd [min] rr [mm]
23.07.2018 19:00:00 28,0 15,9 28,6 31,4 25,6 20,4 9 5 21 12 NNE 1015,0 27 60 0,0
23.07.2018 18:00:00 27,8 16,2 29,0 32,2 25,2 20,4 13 7 21 11 NE 1015,3 24 49 0,0
23.07.2018 17:00:00 28,1 16,6 30,6 34,1 24,7 20,4 13 7 24 13 NNE 1015,4 10 60 0,0
23.07.2018 16:00:00 27,9 16,6 30,8 33,9 24,0 20,4 14 7 21 12 NNE 1016,0 19 54 0,0
23.07.2018 15:00:00 27,3 15,5 31,3 34,1 23,2 20,4 6 4 23 12 NNE 1016,2 27 58 0,0
23.07.2018 14:00:00 26,5 15,7 31,0 33,0 22,5 20,4 9 5 18 10 NNE 1016,7 21 60 0,0
23.07.2018 13:00:00 25,6 16,7 29,5 30,8 21,7 20,4 7 4 16 8 NE 1016,9 24 60 0,0
23.07.2018 12:00:00 24,9 17,4 28,7 28,1 21,1 20,4 6 3 12 7 NNE 1017,4 17 60 0,0
23.07.2018 11:00:00 23,6 17,0 27,7 26,1 20,5 20,4 3 1 8 5 SSE 1017,4 14 60 0,0
23.07.2018 10:00:00 21,6 16,2 25,0 23,4 20,2 20,4 3 2 6 4 S 1017,6 16 60 0,0
23.07.2018 09:00:00 20,0 15,8 21,2 20,4 20,1 20,4 3 1 5 3 E 1017,6 14 60 0,0
23.07.2018 08:00:00 17,5 15,9 17,8 17,5 20,3 20,4 2 1 5 3 - 1017,4 10 27 0,0
23.07.2018 07:00:00 14,7 14,5 13,9 16,5 20,5 20,4 4 2 5 3 N 1017,3 2,4 0 0,0
23.07.2018 06:00:00 15,3 15,0 13,6 16,8 20,8 20,4 2 1 7 4 WNW 1016,9 6 0 0,0
23.07.2018 05:00:00 14,7 14,6 13,8 17,1 21,0 20,4 6 3 8 4 NE 1016,6 0,2 0 0,0
23.07.2018 04:00:00 15,6 15,3 14,0 17,4 21,3 20,4 3 2 4 2 NNE 1016,2 2,5 0 0,0
23.07.2018 03:00:00 15,8 15,4 14,2 17,8 21,6 20,4 3 2 4 2 NNW 1016,2 4,6 0 0,0
23.07.2018 02:00:00 15,8 15,1 15,0 18,4 21,9 20,4 4 2 10 5 N 1016,3 3,8 0 0,0
23.07.2018 01:00:00 17,6 16,1 16,4 19,1 22,2 20,4 6 4 13 7 E 1016,1 9 0 0,0
23.07.2018 00:00:00 19,7 16,1 18,3 19,6 22,5 20,4 10 5 13 7 SE 1015,9 16 0 0,0
22.07.2018 23:00:00 19,8 17,0 18,2 20,4 22,8 20,4 6 3 13 7 S 1015,5 12 0 0,0
22.07.2018 22:00:00 20,4 16,7 19,2 21,3 23,0 20,4 6 3 11 6 SSE 1015,1 9 0 0,0
22.07.2018 21:00:00 20,2 17,6 19,8 22,1 23,2 20,4 6 3 12 6 NNE 1014,6 11 0 0,0
22.07.2018 20:00:00 21,5 16,5 21,2 22,9 23,4 20,4 7 4 16 8 ESE 1014,1 16 7 0,0
22.07.2018 19:00:00 21,9 16,8 22,0 23,6 23,5 20,4 8 4 14 7 NE 1014,1 14 2 0,0
22.07.2018 18:00:00 21,4 17,1 21,0 24,1 23,6 20,4 10 5 31 17 ESE 1013,9 11 0 0,6
22.07.2018 17:00:00 24,6 16,4 23,2 26,9 23,4 20,4 13 7 23 13 NNW 1013,5 17 27 0,0
22.07.2018 16:00:00 26,0 16,0 28,9 27,1 23,1 20,4 6 3 21 11 NW 1013,6 16 15 0,0
22.07.2018 15:00:00 24,9 15,5 27,7 28,3 22,7 20,4 11 6 23 13 NNW 1014,1 19 30 0,0
22.07.2018 14:00:00 24,4 15,4 25,5 26,9 22,2 20,4 3 2 12 6 WNW 1014,5 20 15 0,0
22.07.2018 13:00:00 23,8 15,1 27,6 26,9 21,7 20,4 9 5 18 10 W 1014,8 19 7 0,0
22.07.2018 12:00:00 23,1 14,7 26,4 26,6 21,2 20,4 6 3 14 8 SW 1014,8 19 47 0,0
22.07.2018 11:00:00 22,6 15,4 26,5 24,7 20,9 20,4 6 3 14 7 SW 1014,8 19 39 0,0
22.07.2018 10:00:00 20,9 15,7 21,8 21,1 20,8 20,4 9 5 14 7 SSW 1014,8 20 0 0,0
22.07.2018 09:00:00 19,8 16,0 20,0 19,8 20,8 20,4 9 5 17 9 SSW 1014,6 10 0 0,0
22.07.2018 08:00:00 19,1 16,0 18,9 18,9 20,9 20,4 9 5 19 10 S 1014,5 10 0 0,0
22.07.2018 07:00:00 18,4 15,7 17,9 18,5 21,0 20,4 9 5 19 10 SSW 1014,1 21 0 0,0
22.07.2018 06:00:00 18,1 15,9 17,7 18,6 21,2 20,4 8 5 13 7 SSW 1013,8 19 0 0,0
22.07.2018 05:00:00 18,1 15,9 17,6 18,7 21,4 20,4 6 3 13 7 S 1013,8 20 0 0,0
22.07.2018 04:00:00 18,1 15,9 17,6 18,8 21,6 20,4 9 5 14 8 S 1013,8 20 0 0,0
22.07.2018 03:00:00 18,3 16,4 17,7 18,9 21,8 20,4 7 4 12 7 SSW 1013,9 18 0 0,0
22.07.2018 02:00:00 18,5 16,8 17,7 19,2 22,0 20,4 6 3 9 5 SSW 1013,9 20 0 0,0
22.07.2018 01:00:00 18,6 16,9 17,4 19,4 22,2 20,4 4 2 12 7 SSW 1013,9 22 0 0,0
22.07.2018 00:00:00 19,0 17,3 18,2 19,8 22,5 20,4 10 6 18 10 S 1013,7 22 0 0,0
21.07.2018 23:00:00 19,4 17,6 18,4 20,5 22,7 20,4 8 4 10 5 S 1013,7 26 0 0,0
21.07.2018 22:00:00 19,7 18,0 18,8 21,4 22,8 20,4 6 3 7 4 S 1013,1 15 0 0,0
21.07.2018 21:00:00 20,2 18,9 19,6 22,3 22,9 20,4 4 2 6 3 ESE 1012,6 19 0 0,0
21.07.2018 20:00:00 21,2 18,5 21,0 23,0 22,9 20,4 4 2 7 4 E 1012,6 22 0 0,0
21.07.2018 19:00:00 21,4 17,8 21,7 23,5 22,9 20,4 5 3 10 5 E 1012,7 36 0 0,0
21.07.2018 18:00:00 21,0 17,5 22,0 24,1 22,8 20,4 7 4 11 6 E 1012,9 47 0 0,0
21.07.2018 17:00:00 20,6 17,4 21,5 23,5 22,9 20,4 8 4 12 6 SSE 1012,8 45 0 0,0
21.07.2018 16:00:00 19,5 17,6 19,6 23,0 22,9 20,4 7 4 10 6 E 1013,2 25 0 0,6
21.07.2018 15:00:00 19,2 17,8 19,0 22,8 22,8 20,4 6 3 42 23 SW 1013,4 13 0 6,2
21.07.2018 14:00:00 21,1 16,6 22,4 27,5 22,5 20,4 18 10 28 15 WNW 1012,8 55 36 0,0
21.07.2018 13:00:00 22,8 15,9 25,4 24,7 22,2 20,4 9 5 19 10 W 1012,6 51 5 0,0
21.07.2018 12:00:00 21,7 15,8 23,6 22,7 22,2 20,4 11 6 21 12 SSW 1012,9 63 0 0,0
21.07.2018 11:00:00 20,5 15,9 21,0 21,7 22,1 20,4 14 7 21 11 SSW 1012,8 58 0 0,0
21.07.2018 10:00:00 19,7 15,5 19,4 21,5 22,1 20,3 15 8 22 12 S 1012,8 40 2 0,0
21.07.2018 09:00:00 19,3 16,7 19,0 20,7 22,2 20,3 10 6 15 8 S 1012,3 22 0 0,0
21.07.2018 08:00:00 18,5 17,1 18,0 19,9 22,4 20,3 6 4 12 6 SW 1012,1 19 0 0,0
21.07.2018 07:00:00 18,3 17,0 17,6 19,7 22,6 20,3 10 6 14 8 S 1011,8 18 0 0,0
21.07.2018 06:00:00 18,0 17,2 17,4 19,8 22,9 20,3 5 3 12 6 S 1011,7 13 0 0,1
21.07.2018 05:00:00 18,4 17,4 17,8 20,1 23,1 20,3 9 5 13 7 S 1011,5 12 0 0,3
21.07.2018 04:00:00 18,4 17,3 17,7 20,3 23,4 20,3 10 5 14 8 S 1011,9 16 0 0,5
21.07.2018 03:00:00 18,1 17,1 17,6 20,6 23,7 20,3 0 0 16 9 N 1011,9 11 0 0,3
21.07.2018 02:00:00 19,6 16,7 18,2 20,8 24,1 20,3 13 7 26 14 SSW 1012,2 23 0 0,0
21.07.2018 01:00:00 19,8 17,4 18,5 21,2 24,5 20,3 10 6 16 8 SSW 1012,1 12 0 0,0
21.07.2018 00:00:00 20,0 17,1 18,7 21,8 24,9 20,3 10 5 14 8 S 1011,9 19 0 0,0
20.07.2018 23:00:00 19,9 16,9 18,5 22,4 25,3 20,3 7 4 14 8 S 1012,0 23 0 0,0
20.07.2018 22:00:00 19,9 18,1 19,0 23,5 25,8 20,3 7 4 20 11 S 1012,0 12 0 0,1
20.07.2018 21:00:00 20,3 17,7 19,2 24,9 26,2 20,3 13 7 21 11 WSW 1011,6 13 0 0,6
20.07.2018 20:00:00 22,6 16,2 22,6 26,7 26,4 20,3 15 8 31 17 S 1011,7 33 0 0,0
20.07.2018 19:00:00 24,0 15,5 24,1 29,1 26,5 20,3 13 7 28 15 S 1011,2 10 19 0,0
20.07.2018 18:00:00 26,7 15,3 27,9 31,3 26,4 20,3 9 5 16 9 SSE 1010,9 10 41 0,0
20.07.2018 17:00:00 27,1 15,3 29,9 29,6 26,4 20,3 6 3 43 23 SW 1011,6 31 8 0,1
20.07.2018 16:00:00 27,3 12,5 27,3 32,8 25,9 20,3 9 5 15 8 WNW 1011,8 44 10 0,0
20.07.2018 15:00:00 29,6 11,6 31,7 37,1 25,0 20,3 12 7 21 12 WNW 1010,9 41 54 0,0
20.07.2018 14:00:00 29,8 14,2 34,0 36,4 24,1 20,3 5 3 13 7 - 1011,7 10 60 0,0
20.07.2018 13:00:00 28,2 12,2 33,9 34,1 23,2 20,2 3 2 10 5 NNE 1012,4 35 60 0,0
20.07.2018 12:00:00 27,0 11,8 31,6 31,2 22,5 20,2 3 2 11 6 S 1012,9 42 60 0,0
20.07.2018 11:00:00 24,6 13,5 29,8 27,6 22,0 20,2 6 4 12 6 WSW 1013,4 27 60 0,0
20.07.2018 10:00:00 22,9 13,7 25,8 24,3 21,7 20,2 5 3 10 6 SSW 1013,6 24 60 0,0
20.07.2018 09:00:00 20,5 13,1 23,4 21,3 21,8 20,2 5 3 9 5 SW 1013,8 26 60 0,0
20.07.2018 08:00:00 18,0 14,3 19,5 18,8 22,0 20,2 4 2 7 4 WSW 1013,9 17 17 0,0
20.07.2018 07:00:00 15,8 13,7 14,8 18,4 22,3 20,2 0 0 4 2 N 1014,1 14 5 0,0
20.07.2018 06:00:00 15,3 13,2 13,5 18,3 22,7 20,2 2 1 4 2 NE 1014,3 17 0 0,0
20.07.2018 05:00:00 15,2 13,4 13,4 18,8 23,1 20,2 0 0 3 2 N 1014,2 15 0 0,0
20.07.2018 04:00:00 15,9 13,3 14,0 19,4 23,5 20,2 2 1 5 3 ESE 1014,3 25 0 0,0
20.07.2018 03:00:00 17,1 13,7 15,4 20,2 23,9 20,2 4 2 5 3 W 1014,6 26 0 0,0
20.07.2018 02:00:00 18,5 14,0 15,8 20,9 24,3 20,2 4 2 6 4 W 1015,0 26 0 0,0
20.07.2018 01:00:00 18,9 13,9 16,5 21,9 24,8 20,2 2 1 4 2 NNW 1014,9 33 0 0,0
20.07.2018 00:00:00 20,5 13,9 18,0 22,8 25,2 20,2 3 1 6 4 E 1014,9 32 0 0,0
19.07.2018 23:00:00 21,2 13,8 19,0 23,9 25,6 20,2 4 2 7 4 NNE 1014,9 40 0 0,0
19.07.2018 22:00:00 22,8 12,8 19,9 25,0 26,0 20,2 6 3 12 7 ENE 1014,6 40 0 0,0
19.07.2018 21:00:00 23,8 12,7 21,3 26,8 26,2 20,2 11 6 20 11 NNE 1014,2 42 39 0,0
19.07.2018 20:00:00 27,0 11,5 25,7 29,1 26,3 20,2 14 8 26 14 NNE 1013,8 42 60 0,0
19.07.2018 19:00:00 28,4 10,7 28,0 31,1 26,2 20,2 19 10 26 14 NNE 1013,7 30 60 0,0
19.07.2018 18:00:00 28,3 10,4 28,7 32,6 25,8 20,2 15 8 27 15 NNE 1014,1 10 60 0,0
19.07.2018 17:00:00 28,8 10,8 30,7 34,1 25,3 20,2 18 10 30 16 NNE 1014,4 10 60 0,0
19.07.2018 16:00:00 28,3 9,9 30,0 34,3 24,7 20,2 14 7 24 13 N 1015,1 43 44 0,0
19.07.2018 15:00:00 28,4 9,2 31,5 34,2 23,9 20,2 15 8 29 15 N 1015,3 25 60 0,0
19.07.2018 14:00:00 27,9 10,6 30,7 33,0 23,2 20,2 16 9 35 19 NNE 1015,8 10 60 0,0
19.07.2018 13:00:00 26,9 10,7 29,5 30,9 22,5 20,2 19 11 33 18 N 1016,3 29 55 0,0
19.07.2018 12:00:00 25,9 14,8 29,3 29,7 21,9 20,2 15 8 23 12 N 1016,6 10 60 0,0
19.07.2018 11:00:00 23,7 12,6 27,2 26,8 21,4 20,2 10 5 16 8 N 1017,0 25 60 0,0
19.07.2018 10:00:00 22,4 13,8 25,0 23,6 21,2 20,2 9 5 15 8 NNE 1016,8 28 60 0,0
19.07.2018 09:00:00 20,1 13,9 22,1 21,2 21,1 20,2 8 4 13 7 NE 1017,2 27 60 0,0
19.07.2018 08:00:00 18,3 13,2 19,7 19,0 21,3 20,2 5 3 9 5 NE 1017,2 10 54 0,0
19.07.2018 07:00:00 16,6 13,5 16,5 17,9 21,5 20,2 5 3 6 3 NE 1017,1 20 27 0,0
19.07.2018 06:00:00 16,0 13,4 15,1 17,8 21,8 20,2 4 2 7 4 WNW 1016,9 23 0 0,0
19.07.2018 05:00:00 15,8 14,0 15,4 17,9 22,2 20,2 5 3 7 4 E 1017,0 19 0 0,0
19.07.2018 04:00:00 15,3 13,2 13,0 18,0 22,6 20,2 4 2 6 3 N 1017,1 21 0 0,0
19.07.2018 03:00:00 15,6 13,3 13,3 18,6 23,0 20,2 5 3 6 3 NNE 1017,2 23 0 0,0
19.07.2018 02:00:00 17,3 13,6 14,0 19,3 23,5 20,2 3 2 6 3 NNW 1016,7 28 0 0,0
19.07.2018 01:00:00 17,8 13,9 15,5 20,2 23,9 20,2 4 2 10 5 SSE 1016,5 30 0 0,0
19.07.2018 00:00:00 18,7 14,0 15,9 21,1 24,4 20,2 4 2 6 4 NE 1016,0 37 0 0,0
18.07.2018 23:00:00 20,2 14,0 16,5 22,2 24,8 20,2 6 3 10 5 ENE 1015,6 49 0 0,0
18.07.2018 22:00:00 20,9 14,3 18,7 23,7 25,3 20,2 8 5 16 8 NE 1015,5 58 0 0,0
18.07.2018 21:00:00 23,2 14,3 21,1 25,7 25,5 20,2 12 6 20 11 NNE 1014,9 52 4 0,0
18.07.2018 20:00:00 26,1 13,7 24,7 28,1 25,6 20,2 16 9 26 14 NNE 1014,6 10 60 0,0
18.07.2018 19:00:00 27,5 13,2 27,2 30,7 25,4 20,2 15 8 23 12 NNE 1014,5 39 60 0,0
18.07.2018 18:00:00 28,2 13,2 29,1 32,6 25,1 20,2 11 6 23 12 NNE 1014,9 10 60 0,0
18.07.2018 17:00:00 28,4 12,7 30,4 33,6 24,6 20,2 10 6 26 14 N 1015,2 57 60 0,0
18.07.2018 16:00:00 27,8 13,0 30,3 33,7 24,0 20,2 13 7 26 14 NNE 1015,6 10 60 0,0
18.07.2018 15:00:00 27,8 14,5 30,8 33,2 23,3 20,2 12 7 22 12 NNE 1015,9 36 60 0,0
18.07.2018 14:00:00 26,5 14,9 29,3 31,6 22,7 20,2 11 6 27 14 NE 1016,5 10 60 0,0
18.07.2018 13:00:00 25,3 15,4 28,5 29,4 22,1 20,2 14 7 24 13 NNE 1016,8 29 60 0,0
18.07.2018 12:00:00 24,4 16,2 28,0 28,0 21,6 20,2 11 6 17 9 NNE 1017,4 10 60 0,0
18.07.2018 11:00:00 23,7 15,7 27,8 26,5 21,0 20,2 4 2 11 6 - 1017,6 10 60 0,0
18.07.2018 10:00:00 22,5 15,2 24,6 23,9 20,7 20,2 3 2 8 4 N 1017,8 35 60 0,0
18.07.2018 09:00:00 20,7 14,6 22,8 21,1 20,6 20,2 5 3 8 4 WSW 1017,8 35 60 0,0
18.07.2018 08:00:00 19,2 14,9 20,9 18,7 20,7 20,2 5 3 7 4 W 1017,8 22 60 0,0
18.07.2018 07:00:00 16,8 14,7 17,0 17,4 21,0 20,2 3 2 7 4 W 1017,8 18 31 0,0
18.07.2018 06:00:00 16,0 14,3 13,7 17,2 21,3 20,2 4 2 6 4 W 1017,8 19 0 0,0
18.07.2018 05:00:00 17,2 14,6 15,3 17,7 21,6 20,2 5 3 7 4 S 1017,6 25 0 0,0
18.07.2018 04:00:00 16,1 14,6 14,2 17,9 21,9 20,2 4 2 8 4 SSE 1017,7 14 0 0,0
18.07.2018 03:00:00 17,2 15,5 15,5 18,5 22,2 20,2 6 3 13 7 S 1017,5 15 0 0,0
18.07.2018 02:00:00 18,9 14,6 17,4 19,1 22,5 20,2 10 5 18 10 SW 1017,2 37 0 0,0
18.07.2018 01:00:00 18,9 16,3 17,0 19,8 22,8 20,2 3 1 16 9 ESE 1017,4 29 0 0,0
18.07.2018 00:00:00 20,5 15,7 19,1 20,3 23,1 20,2 12 6 19 10 E 1017,1 38 0 0,0
17.07.2018 23:00:00 21,3 15,2 19,8 21,1 23,4 20,2 9 5 17 9 SSE 1016,7 46 0 0,0
17.07.2018 22:00:00 22,6 14,2 20,7 21,9 23,7 20,2 6 3 26 14 SW 1016,5 47 0 0,0
17.07.2018 21:00:00 20,9 17,3 19,1 23,0 24,0 20,2 5 3 14 8 NE 1015,6 40 11 0,0
17.07.2018 20:00:00 23,1 17,6 22,0 24,5 24,1 20,2 10 5 12 7 NNE 1015,0 53 41 0,0
17.07.2018 19:00:00 22,4 16,1 20,4 24,5 24,4 20,2 9 5 57 31 E 1015,2 49 9 1,6

tt = Température de l'air
td = dewpoint
tt 5cm = Température de l'air 5cm
tt -5cm = Température de l'air -5cm
tt -20cm = Température de l'air -20cm
tt -100cm = Température de l'air -100cm
ff = Vitesse du vent
fx = gusts
dd = Direction du vent
ppp = reduced air pressure
vv = visibility
sd = Ensoleillement
rr = Quantités de précipitations

stations d'obs. à proximité